Satellite: HRBE Catalog number: 37855 Epoch time: 13059.60416759 Element set: 432 Inclination: 101.7177 deg RA of node: 223.5202 deg Eccentricity: 0.0240095 Arg of perigee: 337.6195 deg Mean anomaly: 086.6499 deg Mean motion: 14.82733890 rev/day Decay rate: 2.280e-05 rev/day^2 Epoch rev: 7235 Checksum: 311
Satellite: RS-39 Catalog number: 38051 Epoch time: 13059.83082524 Element set: 214 Inclination: 051.6380 deg RA of node: 012.2836 deg Eccentricity: 0.0011261 Arg of perigee: 229.9336 deg Mean anomaly: 149.5850 deg Mean motion: 15.29479491 rev/day Decay rate: 7.565e-05 rev/day^2 Epoch rev: 6118 Checksum: 307
Satellite: E-STAR Catalog number: 38079 Epoch time: 13060.06010160 Element set: 932 Inclination: 069.4909 deg RA of node: 079.7122 deg Eccentricity: 0.0663005 Arg of perigee: 278.7460 deg Mean anomaly: 073.8965 deg Mean motion: 14.35152389 rev/day Decay rate: 3.3107e-04 rev/day^2 Epoch rev: 5417 Checksum: 302
Satellite: GOLIAT Catalog number: 38085 Epoch time: 13059.50955505 Element set: 864 Inclination: 069.4852 deg RA of node: 082.4386 deg Eccentricity: 0.0669280 Arg of perigee: 280.1084 deg Mean anomaly: 072.5230 deg Mean motion: 14.33497066 rev/day Decay rate: 2.8148e-04 rev/day^2 Epoch rev: 5405 Checksum: 319
Satellite: HORYU-2 Catalog number: 38340 Epoch time: 13059.11771371 Element set: 391 Inclination: 098.2048 deg RA of node: 005.9202 deg Eccentricity: 0.0011724 Arg of perigee: 236.9784 deg Mean anomaly: 123.0296 deg Mean motion: 14.70637035 rev/day Decay rate: 6.64e-06 rev/day^2 Epoch rev: 4208 Checksum: 281
Satellite: RS-40 Catalog number: 38736 Epoch time: 13058.84895523 Element set: 198 Inclination: 082.4748 deg RA of node: 223.2992 deg Eccentricity: 0.0020426 Arg of perigee: 198.2010 deg Mean anomaly: 161.8343 deg Mean motion: 12.43229714 rev/day Decay rate: 1.0e-07 rev/day^2 Epoch rev: 2666 Checksum: 300
Satellite: PROITERES Catalog number: 38756 Epoch time: 13059.78480678 Element set: 552 Inclination: 098.2629 deg RA of node: 134.8069 deg Eccentricity: 0.0013801 Arg of perigee: 092.1898 deg Mean anomaly: 268.0887 deg Mean motion: 14.74086510 rev/day Decay rate: 3.24e-06 rev/day^2 Epoch rev: 2542 Checksum: 330
Satellite: RAIKO Catalog number: 38852 Epoch time: 13058.88339686 Element set: 154 Inclination: 051.6415 deg RA of node: 285.9266 deg Eccentricity: 0.0012944 Arg of perigee: 308.8639 deg Mean anomaly: 051.1199 deg Mean motion: 15.61924032 rev/day Decay rate: 3.5934e-04 rev/day^2 Epoch rev: 2270 Checksum: 322
Satellite: FITSAT 1 Catalog number: 38853 Epoch time: 13059.86980832 Element set: 153 Inclination: 051.6433 deg RA of node: 279.7818 deg Eccentricity: 0.0009523 Arg of perigee: 323.7260 deg Mean anomaly: 036.3088 deg Mean motion: 15.64375305 rev/day Decay rate: 5.6434e-04 rev/day^2 Epoch rev: 2292 Checksum: 316
Satellite: TechEdSat Catalog number: 38854 Epoch time: 13058.86416700 Element set: 173 Inclination: 051.6393 deg RA of node: 282.0319 deg Eccentricity: 0.0007356 Arg of perigee: 311.3824 deg Mean anomaly: 048.6540 deg Mean motion: 15.70738815 rev/day Decay rate: 8.9278e-04 rev/day^2 Epoch rev: 2280 Checksum: 308
Satellite: F 1 Catalog number: 38855 Epoch time: 13059.84705248 Element set: 176 Inclination: 051.6388 deg RA of node: 277.3400 deg Eccentricity: 0.0007664 Arg of perigee: 316.9335 deg Mean anomaly: 043.1062 deg Mean motion: 15.70083796 rev/day Decay rate: 9.8771e-04 rev/day^2 Epoch rev: 2284 Checksum: 324
Satellite: WeWish Catalog number: 38856 Epoch time: 13059.84833513 Element set: 212 Inclination: 051.6332 deg RA of node: 269.7274 deg Eccentricity: 0.0009274 Arg of perigee: 275.8671 deg Mean anomaly: 084.1298 deg Mean motion: 15.95596590 rev/day Decay rate: 4.96549e-03 rev/day^2 Epoch rev: 2295 Checksum: 350
/EX
participants (1)
-
Ray Hoad